Change the Weather History Date:

Saturday, August 3, 2013

  Actual Average Record
Temperature  
Mean Temperature 83 °F -  
Max Temperature 98 °F 86 °F - ()
Min Temperature 68 °F 62 °F - ()
Cooling Degree Days 18    
Growing Degree Days 33 (Base 50)    
Moisture  
Dew Point 60 °F    
Average Humidity 50    
Maximum Humidity 83    
Minimum Humidity 24    
Precipitation  
Precipitation 0.00 in 0.10 in - ()
Sea Level Pressure  
Sea Level Pressure 30.05 in    
Wind  
Wind Speed 4 mph ()    
Max Wind Speed 13 mph    
Max Gust Speed -    
T = Trace of Precipitation, MM = Missing Value Source: Averaged Metar Reports

Daily Weather History Graph

Daily Weather History Graph

Search for Another Location

Airport or City:

Trip Planner

Search our weather history database for the weather conditions in past years. The results will help you decide how hot, cold, wet, or windy it might be!

Date:

Astronomy

Aug. 03, 2013 Rise Set
Actual Time 6:06 AM CEST 8:35 PM CEST
Civil Twilight 5:33 AM CEST 9:08 PM CEST
Nautical Twilight 4:52 AM CEST 9:48 PM CEST
Astronomical Twilight 4:06 AM CEST 10:34 PM CEST
Moon 3:00 AM CEST (8/3) 6:07 PM CEST (8/3)
Length of Visible Light 15h 35m
Length of Day
14h 29m
Waning Crescent, 11% of the Moon is Illuminated
Aug 3
Waning Crescent
Aug 6
New
Aug 14
First Quarter
Aug 21
Full
Aug 28
Last Quarter

Hourly Weather History & Observations

Time (CEST) Temp. Heat Index Dew Point Humidity Pressure Visibility Wind Dir Wind Speed Gust Speed Precip Events Conditions
12:20 AM 75.2 °F - 60.8 °F 61% 30.06 in - ENE 5.8 mph - N/A   Clear
12:50 AM 73.4 °F - 60.8 °F 65% 30.06 in - East 5.8 mph - N/A   Clear
1:20 AM 75.2 °F - 60.8 °F 61% 30.04 in - Variable 2.3 mph - N/A   Clear
1:50 AM 71.6 °F - 60.8 °F 69% 30.04 in - ENE 3.5 mph - N/A   Clear
2:20 AM 71.6 °F - 60.8 °F 69% 30.04 in - East 3.5 mph - N/A   Clear
2:50 AM 71.6 °F - 62.6 °F 73% 30.04 in - NE 3.5 mph - N/A   Clear
3:20 AM 71.6 °F - 60.8 °F 69% 30.04 in - ENE 3.5 mph - N/A   Clear
3:50 AM 68.0 °F - 60.8 °F 78% 30.04 in - ENE 3.5 mph - N/A   Clear
4:20 AM 68.0 °F - 60.8 °F 78% 30.04 in - Variable 2.3 mph - N/A   Clear
4:50 AM 68.0 °F - 60.8 °F 78% 30.04 in - NE 2.3 mph - N/A   Clear
5:20 AM 69.8 °F - 60.8 °F 73% 30.04 in - Variable 1.2 mph - N/A   Clear
5:50 AM 68.0 °F - 62.6 °F 83% 30.06 in - Calm Calm - N/A   Clear
6:20 AM 68.0 °F - 60.8 °F 78% 30.06 in - NE 3.5 mph - N/A   Clear
6:50 AM 68.0 °F - 62.6 °F 83% 30.06 in - ENE 3.5 mph - N/A   Clear
7:20 AM 73.4 °F - 62.6 °F 69% 30.06 in - Calm Calm - N/A   Clear
7:50 AM 77.0 °F - 62.6 °F 61% 30.06 in - Calm Calm - N/A   Clear
8:20 AM 77.0 °F - 62.6 °F 61% 30.06 in - Variable 1.2 mph - N/A   Clear
8:50 AM 78.8 °F - 62.6 °F 57% 30.06 in - Variable 2.3 mph - N/A   Clear
9:20 AM 78.8 °F - 62.6 °F 57% 30.06 in - Variable 1.2 mph - N/A   Clear
9:50 AM 80.6 °F 81.8 °F 62.6 °F 54% 30.06 in - Variable 1.2 mph - N/A   Clear
10:20 AM 84.2 °F 85.6 °F 64.4 °F 51% 30.06 in - Variable 2.3 mph - N/A   Clear
10:50 AM 84.2 °F 85.0 °F 62.6 °F 48% 30.06 in - Variable 2.3 mph - N/A   Clear
11:20 AM 87.8 °F 88.5 °F 62.6 °F 43% 30.06 in - North 1.2 mph - N/A   Clear
11:50 AM 89.6 °F 89.5 °F 60.8 °F 38% 30.06 in - Variable 3.5 mph - N/A   Clear
12:20 PM 91.4 °F 91.4 °F 60.8 °F 36% 30.06 in - Variable 2.3 mph - N/A   Clear
12:50 PM 93.2 °F 93.3 °F 60.8 °F 34% 30.04 in - Variable 2.3 mph - N/A   Clear
1:20 PM 93.2 °F 93.3 °F 60.8 °F 34% 30.04 in - Variable 2.3 mph - N/A   Clear
1:50 PM 95.0 °F 95.2 °F 60.8 °F 32% 30.04 in - Variable 4.6 mph - N/A   Clear
2:20 PM 96.8 °F 96.2 °F 59.0 °F 28% 30.04 in - Variable 4.6 mph - N/A   Clear
2:50 PM 98.6 °F 97.6 °F 57.2 °F 25% 30.04 in - Variable 5.8 mph - N/A   Clear
3:20 PM 98.6 °F 97.2 °F 55.4 °F 24% 30.04 in - Variable 8.1 mph - N/A   Clear
3:50 PM 96.8 °F 95.8 °F 57.2 °F 27% 30.01 in - WSW 8.1 mph - N/A   Clear
4:20 PM 98.6 °F 98.5 °F 59.0 °F 27% 30.01 in - SW 5.8 mph - N/A   Clear
4:50 PM 96.8 °F 95.8 °F 57.2 °F 27% 30.01 in - WSW 9.2 mph - N/A   Clear
5:20 PM 96.8 °F 95.8 °F 57.2 °F 27% 30.01 in - SW 11.5 mph - N/A   Clear
5:50 PM 95.0 °F 93.7 °F 57.2 °F 28% 30.01 in - West 11.5 mph - N/A   Clear
6:20 PM 93.2 °F 91.9 °F 57.2 °F 30% 30.01 in - West 12.7 mph - N/A   Clear
6:50 PM 93.2 °F 91.3 °F 55.4 °F 28% 30.04 in - West 10.4 mph - N/A   Clear
7:20 PM 91.4 °F 89.4 °F 55.4 °F 29% 30.04 in - West 6.9 mph - N/A   Clear
7:50 PM 89.6 °F 87.7 °F 55.4 °F 31% 30.04 in - SW 8.1 mph - N/A   Clear
8:20 PM 86.0 °F 84.5 °F 55.4 °F 35% 30.04 in - SSW 8.1 mph - N/A   Clear
8:50 PM 84.2 °F 83.0 °F 55.4 °F 37% 30.06 in - SSW 6.9 mph - N/A   Clear
9:20 PM 80.6 °F 80.8 °F 57.2 °F 45% 30.06 in - Variable 2.3 mph - N/A   Clear
9:50 PM 80.6 °F 81.1 °F 59.0 °F 48% 30.06 in - ESE 3.5 mph - N/A   Clear
10:20 PM 77.0 °F - 59.0 °F 54% 30.06 in - East 4.6 mph - N/A   Clear
10:50 PM 77.0 °F - 59.0 °F 54% 30.06 in - East 4.6 mph - N/A   Clear
11:20 PM 75.2 °F - 59.0 °F 57% 30.06 in - East 5.8 mph - N/A   Clear
11:50 PM 75.2 °F - 59.0 °F 57% 30.06 in - East 3.5 mph - N/A   Clear